Tracking 29892 objects as of 21-Nov-2024
HD Live streaming from Space Station
objects crossing your sky now

JIAOTONG VDES

Track JIAOTONG VDES now!
10-day predictions


NORAD ID: 54588
Int'l Code: 2022-164A
Perigee: 741.5 km
Apogee: 753.8 km
Inclination: 98.3 °
Period: 99.6 minutes
Semi major axis: 7118 km
RCS: Unknown
Launch date: December 7, 2022
Source: People's Republic of China (PRC)
Launch site: Jiuquan Satellite Launch Center, China (JSC)
Your satellite tracking list
Your tracking list is empty




NASA's NSSDC Master Catalog

Two Line Element Set (TLE):
1 54588U 22164A   24326.13529125  .00000575  00000-0  17541-3 0  9998
2 54588  98.2878 349.0090 0008620 270.8611  89.1593 14.45467861103274
Source of the keplerian elements: AFSPC